Regional Weather Roundup
Issued by NWS Northern Indiana

Home | Current Version | Previous Version | Text Only | Print | Product List | Glossary Off
Versions: 1 2 3 4 5 6 7 8 9 10 11 12 13 14 15 16 17 18 19 20 21 22 23 24 25 26 27 28 29 30 31 32 33 34 35 36 37 38 39 40 41 42 43 44 45 46 47 48 49 50

000
ASUS43 KIWX 271110
RWRIWX

KIWX WEATHER ROUNDUP
NATIONAL WEATHER SERVICE NORTHERN INDIANA
600 AM EST THU NOV 27 2014

NOTE: "FAIR" INDICATES FEW OR NO CLOUDS BELOW 12,000 FEET WITH NO
SIGNIFICANT WEATHER AND/OR OBSTRUCTIONS TO VISIBILITY.

* THESE STATIONS ARE NOT UNDER NWS QUALITY CONTROL. THEY ALSO MAY NOT
  REPORT WEATHER SUCH AS PRECIPITATION OR FOG.

INZ001>027-271200-
NORTHERN INDIANA

CITY           SKY/WX    TMP DP  RH WIND       PRES   REMARKS
GARY*          CLOUDY    28  23  80 W9        30.24R WCI  20
VALPARAISO     CLOUDY    28  22  78 NW13      30.21R WCI  17
MICHIGAN CITY* FLURRIES  32  27  80 NW8       30.20R WCI  25
LAPORTE*       FLURRIES  32  27  83 NW7       30.19S WCI  26
KNOX*          CLOUDY    29  26  88 NW10      30.19R WCI  20
SOUTH BEND     LGT SNOW  28  24  85 SW3       30.19R FOG
GOSHEN         CLOUDY    27  22  81 W6        30.18R WCI  20
MONTICELLO*    CLOUDY    27  25  90 NW9       30.22R WCI  18
LOGANSPORT*    FLURRIES  28  23  80 NW6       30.22R WCI  22
ROCHESTER*     MOCLDY    30  27  86 W7        30.20R WCI  23
WARSAW*        CLOUDY    28  23  80 W7        30.19R WCI  21
ANGOLA*        CLOUDY    27  23  86 NW5       30.14R WCI  21
FORT WAYNE     CLOUDY    27  22  81 NW7       30.17R WCI  19
HUNTINGTON*    CLOUDY    27  22  84 NW5       30.17R WCI  21
PERU/GRISSOM   CLOUDY    27  25  93 NW8       30.20R WCI  18
MARION*          N/A     26  22  83 NW9       30.19R WCI  17

$$
INZ028>050-271200-
CENTRAL INDIANA

CITY           SKY/WX    TMP DP  RH WIND       PRES   REMARKS
LAFAYETTE      CLOUDY    26  23  88 NW7       30.24R WCI  18
KOKOMO*        CLOUDY    27  19  74 NW10      30.20R WCI  17
MUNCIE*        PTCLDY    27  22  81 NW9       30.16R WCI  18
INDIANAPOLIS   PTCLDY    25  19  78 NW12      30.20R WCI  14

$$
MIZ043>046-050>051-056>058-064>065-071>073-077>080-271200-
SOUTHWEST LOWER MICHIGAN

CITY           SKY/WX    TMP DP  RH WIND       PRES   REMARKS
BATTLE CREEK   CLOUDY    29  21  72 W7        30.15R WCI  22
BENTON HARBOR  LGT SNOW  27  24  89 CALM      30.18R FOG
COLDWATER*     CLOUDY    30  24  78 NW3       30.14R
HILLSDALE*     CLOUDY    27  22  83 NW3       30.12R
HOLLAND        LGT SNOW  30  25  81 CALM      30.17S
GRAND RAPIDS   CLOUDY    28  22  78 W7        30.15S WCI  21
KALAMAZOO      CLOUDY    28  21  75 W6        30.16R WCI  22
STURGIS*       CLOUDY    27  23  86 W3        30.15R
THREE RIVERS*  CLOUDY    29  24  81 W3        30.16S

$$
OHZ001>008-015>018-024>025-271200-
NORTHWEST OHIO

CITY           SKY/WX    TMP DP  RH WIND       PRES   REMARKS
WAUSEON*       CLOUDY    28  23  80 NW8       30.13R WCI  20
DEFIANCE       CLOUDY    30  23  75 N10       30.15R WCI  21
FINDLAY        CLOUDY    30  25  81 NW8       30.11R WCI  22
TOLEDO EXPRESS CLOUDY    28  23  81 NW9       30.13R WCI  19
TOLEDO METCALF CLOUDY    30  23  75 NW12      30.13R WCI  20
LIMA           LGT SNOW  30  25  81 NW8       30.11R WCI  22

$$
AND FOR LAKE MICHIGAN COASTAL AND OPEN LAKE BUOY OBSERVATIONS

STATION/POSITION TEMP    WIND        PRES    VSBY  WAVE
                 AIR SEA DIR/SP/G                  HT/PER
                 (F)     (DEG/KT/KT) (MB)    (MI)  (FT/S)
CALUMET HARBOR    26     280/  8/ 11 1022.7R
MICHIGAN CITY     32     290/ 21/ 24   N/A
SAINT JOSEPH      29     130/  3/  5 1022.7R
SOUTH LAKE BUOY   32 42  320/ 19/ 23 1023.0R         3/ 5

$$
&&



USA.gov is the U.S. government's official web portal to all federal, state and local government web resources and services.